{"data":{"norad_id":29228,"epoch":"2026-09-19T22:47:17.381472Z","epoch_age_seconds":61943,"freshness":"FRESH","line1":"1 29228U 06021A   26262.94950673  .00001413  00000+0  84758-4 0  9997","line2":"2 29228  69.9300  94.1877 0005145 211.1895 148.8967 15.13526358116910","mean_motion":15.13526358,"eccentricity":0.0005145,"inclination_deg":69.93,"raan_deg":94.1877,"arg_perigee_deg":211.1895,"mean_anomaly_deg":148.8967,"bstar":8.4758e-5,"rev_number":11691,"period_min":95.142049716454,"perigee_km":521.90414201234,"apogee_km":529.00793925115,"semimajor_km":6903.5930406317,"source":"CELESTRAK","updated_at":"2026-09-20T09:00:33.885561Z"}}